owner,sensor,date,latitude,longitude,vertical_datum,wind_speed,wind_to_direction,wind_speed_of_gust,qcFlag 
COMPS,ioos:station:USF.COMPS:ARP:1,2019-09-01T00:54:00,28.4330,-82.6670,10.0,0.77,73.47,1.46,'11111222,11111222,11111222' 
COMPS,ioos:station:USF.COMPS:ARP:1,2019-09-01T01:54:00,28.4330,-82.6670,10.0,2.58,74.25,3.62,'11111222,11111222,11111222' 
COMPS,ioos:station:USF.COMPS:ARP:1,2019-09-01T02:54:00,28.4330,-82.6670,10.0,2.44,85.38,3.23,'11111222,11111222,11111222' 
COMPS,ioos:station:USF.COMPS:ARP:1,2019-09-01T03:54:00,28.4330,-82.6670,10.0,1.95,75.17,2.45,'11111222,11111222,11111222' 
COMPS,ioos:station:USF.COMPS:ARP:1,2019-09-01T04:54:00,28.4330,-82.6670,10.0,1.8,85.21,2.74,'11111222,11111222,11111222' 
COMPS,ioos:station:USF.COMPS:ARP:1,2019-09-01T05:54:00,28.4330,-82.6670,10.0,1.81,73.87,2.64,'11111222,11111222,11111222' 
COMPS,ioos:station:USF.COMPS:ARP:1,2019-09-01T06:54:00,28.4330,-82.6670,10.0,1.33,68.63,2.05,'11111222,11111222,11111222' 
COMPS,ioos:station:USF.COMPS:ARP:1,2019-09-01T07:54:00,28.4330,-82.6670,10.0,2.16,71.96,2.84,'11111222,11111222,11111222' 
COMPS,ioos:station:USF.COMPS:ARP:1,2019-09-01T08:54:00,28.4330,-82.6670,10.0,1.27,76.73,1.86,'11111222,11111222,11111222' 
COMPS,ioos:station:USF.COMPS:ARP:1,2019-09-01T09:54:00,28.4330,-82.6670,10.0,2.0,69.71,2.84,'11111222,11111222,11111222' 
COMPS,ioos:station:USF.COMPS:ARP:1,2019-09-01T10:54:00,28.4330,-82.6670,10.0,2.37,75.74,3.13,'11111222,11111222,11111222' 
COMPS,ioos:station:USF.COMPS:ARP:1,2019-09-01T11:54:00,28.4330,-82.6670,10.0,2.18,73.23,3.03,'11111222,11111222,11111222' 
COMPS,ioos:station:USF.COMPS:ARP:1,2019-09-01T12:54:00,28.4330,-82.6670,10.0,2.65,77.13,3.42,'11111222,11111222,11111222' 
COMPS,ioos:station:USF.COMPS:ARP:1,2019-09-01T13:54:00,28.4330,-82.6670,10.0,4.24,74.87,6.46,'11111222,11111222,11111222' 
COMPS,ioos:station:USF.COMPS:ARP:1,2019-09-01T14:54:00,28.4330,-82.6670,10.0,3.7,77.7,5.29,'11111222,11111222,11111222' 
COMPS,ioos:station:USF.COMPS:ARP:1,2019-09-01T15:54:00,28.4330,-82.6670,10.0,2.82,91.66,4.21,'11111222,11111222,11111222' 
COMPS,ioos:station:USF.COMPS:ARP:1,2019-09-01T16:54:00,28.4330,-82.6670,10.0,1.52,79.09,2.74,'11111222,11111222,11111222' 
COMPS,ioos:station:USF.COMPS:ARP:1,2019-09-01T17:54:00,28.4330,-82.6670,10.0,1.41,55.13,3.23,'11111222,11111222,11111222' 
COMPS,ioos:station:USF.COMPS:ARP:1,2019-09-01T18:54:00,28.4330,-82.6670,10.0,2.53,40.72,5.29,'11111222,11111222,11111222' 
COMPS,ioos:station:USF.COMPS:ARP:1,2019-09-01T19:54:00,28.4330,-82.6670,10.0,4.59,68.4,6.76,'11111222,11111222,11111222' 
COMPS,ioos:station:USF.COMPS:ARP:1,2019-09-01T20:54:00,28.4330,-82.6670,10.0,2.45,89.65,4.11,'11111222,11111222,11111222' 
COMPS,ioos:station:USF.COMPS:ARP:1,2019-09-01T21:54:00,28.4330,-82.6670,10.0,0.99,15.57,2.45,'11111222,11111222,11111222' 
COMPS,ioos:station:USF.COMPS:ARP:1,2019-09-01T22:54:00,28.4330,-82.6670,10.0,0.59,106.94,1.27,'11111222,11111222,11111222' 
COMPS,ioos:station:USF.COMPS:ARP:1,2019-09-01T23:54:00,28.4330,-82.6670,10.0,2.25,75.56,2.84,'11111222,11111222,11111222' 
COMPS,ioos:station:USF.COMPS:ARP:1,2019-09-02T00:54:00,28.4330,-82.6670,10.0,1.36,61.78,2.05,'11111222,11111222,11111222' 
COMPS,ioos:station:USF.COMPS:ARP:1,2019-09-02T01:54:00,28.4330,-82.6670,10.0,2.79,77.0,4.31,'11111222,11111222,11111222' 
COMPS,ioos:station:USF.COMPS:ARP:1,2019-09-02T02:54:00,28.4330,-82.6670,10.0,2.15,78.02,3.03,'11111222,11111222,11111222' 
COMPS,ioos:station:USF.COMPS:ARP:1,2019-09-02T03:54:00,28.4330,-82.6670,10.0,2.03,63.26,3.33,'11111222,11111222,11111222' 
COMPS,ioos:station:USF.COMPS:ARP:1,2019-09-02T04:54:00,28.4330,-82.6670,10.0,1.62,73.42,2.15,'11111222,11111222,11111222' 
COMPS,ioos:station:USF.COMPS:ARP:1,2019-09-02T05:54:00,28.4330,-82.6670,10.0,2.09,69.47,3.52,'11111222,11111222,11111222' 
COMPS,ioos:station:USF.COMPS:ARP:1,2019-09-02T06:54:00,28.4330,-82.6670,10.0,2.59,68.71,3.52,'11111222,11111222,11111222' 
COMPS,ioos:station:USF.COMPS:ARP:1,2019-09-02T07:54:00,28.4330,-82.6670,10.0,1.13,60.09,2.45,'11111222,11111222,11111222' 
COMPS,ioos:station:USF.COMPS:ARP:1,2019-09-02T08:54:00,28.4330,-82.6670,10.0,0.9,56.83,1.76,'11111222,11111222,11111222' 
COMPS,ioos:station:USF.COMPS:ARP:1,2019-09-02T09:54:00,28.4330,-82.6670,10.0,1.07,60.63,2.35,'11111222,11111222,11111222' 
COMPS,ioos:station:USF.COMPS:ARP:1,2019-09-02T10:54:00,28.4330,-82.6670,10.0,0.59,17.52,1.95,'11111222,11111222,11111222' 
COMPS,ioos:station:USF.COMPS:ARP:1,2019-09-02T11:54:00,28.4330,-82.6670,10.0,1.62,60.84,3.13,'11111222,11111222,11111222' 
COMPS,ioos:station:USF.COMPS:ARP:1,2019-09-02T13:54:00,28.4330,-82.6670,10.0,2.77,58.2,5.68,'11111222,11111222,11111222' 
COMPS,ioos:station:USF.COMPS:ARP:1,2019-09-02T14:54:00,28.4330,-82.6670,10.0,1.48,55.16,4.31,'11111222,11111222,11111222' 
COMPS,ioos:station:USF.COMPS:ARP:1,2019-09-02T15:54:00,28.4330,-82.6670,10.0,1.85,50.98,4.31,'11111222,11111222,11111222' 
COMPS,ioos:station:USF.COMPS:ARP:1,2019-09-02T16:54:00,28.4330,-82.6670,10.0,1.52,35.7,3.72,'11111222,11111222,11111222' 
COMPS,ioos:station:USF.COMPS:ARP:1,2019-09-02T17:54:00,28.4330,-82.6670,10.0,2.5,345.62,5.87,'11111222,11111222,11111222' 
COMPS,ioos:station:USF.COMPS:ARP:1,2019-09-02T18:54:00,28.4330,-82.6670,10.0,3.52,79.55,5.87,'11111222,11111222,11111222' 
COMPS,ioos:station:USF.COMPS:ARP:1,2019-09-02T19:54:00,28.4330,-82.6670,10.0,2.34,60.7,5.68,'11111222,11111222,11111222' 
COMPS,ioos:station:USF.COMPS:ARP:1,2019-09-02T20:54:00,28.4330,-82.6670,10.0,1.69,66.83,3.23,'11111222,11111222,11111222' 
COMPS,ioos:station:USF.COMPS:ARP:1,2019-09-02T21:54:00,28.4330,-82.6670,10.0,0.94,330.24,2.05,'11111222,11111222,11111222' 
COMPS,ioos:station:USF.COMPS:ARP:1,2019-09-02T22:54:00,28.4330,-82.6670,10.0,0.8,34.57,2.25,'11111222,11111222,11111222' 
COMPS,ioos:station:USF.COMPS:ARP:1,2019-09-02T23:54:00,28.4330,-82.6670,10.0,1.02,53.02,2.15,'11111222,11111222,11111222' 
COMPS,ioos:station:USF.COMPS:ARP:1,2019-09-03T00:54:00,28.4330,-82.6670,10.0,1.09,52.91,2.45,'11111222,11111222,11111222' 
COMPS,ioos:station:USF.COMPS:ARP:1,2019-09-03T01:54:00,28.4330,-82.6670,10.0,1.06,46.69,2.35,'11111222,11111222,11111222' 
COMPS,ioos:station:USF.COMPS:ARP:1,2019-09-03T02:54:00,28.4330,-82.6670,10.0,1.62,51.86,3.23,'11111222,11111222,11111222' 
COMPS,ioos:station:USF.COMPS:ARP:1,2019-09-03T03:54:00,28.4330,-82.6670,10.0,1.33,65.62,2.54,'11111222,11111222,11111222' 
COMPS,ioos:station:USF.COMPS:ARP:1,2019-09-03T04:54:00,28.4330,-82.6670,10.0,1.85,60.7,3.33,'11111222,11111222,11111222' 
COMPS,ioos:station:USF.COMPS:ARP:1,2019-09-03T05:54:00,28.4330,-82.6670,10.0,1.17,52.01,2.35,'11111222,11111222,11111222' 
COMPS,ioos:station:USF.COMPS:ARP:1,2019-09-03T06:54:00,28.4330,-82.6670,10.0,1.31,53.24,2.74,'11111222,11111222,11111222' 
COMPS,ioos:station:USF.COMPS:ARP:1,2019-09-03T07:54:00,28.4330,-82.6670,10.0,1.54,60.73,3.03,'11111222,11111222,11111222' 
COMPS,ioos:station:USF.COMPS:ARP:1,2019-09-03T08:54:00,28.4330,-82.6670,10.0,2.77,66.01,4.9,'11111222,11111222,11111222' 
COMPS,ioos:station:USF.COMPS:ARP:1,2019-09-03T09:54:00,28.4330,-82.6670,10.0,2.01,64.9,3.82,'11111222,11111222,11111222' 
COMPS,ioos:station:USF.COMPS:ARP:1,2019-09-03T10:54:00,28.4330,-82.6670,10.0,1.23,50.49,2.74,'11111222,11111222,11111222' 
COMPS,ioos:station:USF.COMPS:ARP:1,2019-09-03T11:54:00,28.4330,-82.6670,10.0,1.35,56.59,3.03,'11111222,11111222,11111222' 
COMPS,ioos:station:USF.COMPS:ARP:1,2019-09-03T12:54:00,28.4330,-82.6670,10.0,2.57,58.21,3.82,'11111222,11111222,11111222' 
COMPS,ioos:station:USF.COMPS:ARP:1,2019-09-03T13:54:00,28.4330,-82.6670,10.0,2.78,60.29,6.46,'11111222,11111222,11111222' 
COMPS,ioos:station:USF.COMPS:ARP:1,2019-09-03T14:54:00,28.4330,-82.6670,10.0,3.07,61.08,5.68,'11111222,11111222,11111222' 
COMPS,ioos:station:USF.COMPS:ARP:1,2019-09-03T15:54:00,28.4330,-82.6670,10.0,2.88,71.2,4.11,'11111222,11111222,11111222' 
COMPS,ioos:station:USF.COMPS:ARP:1,2019-09-03T16:54:00,28.4330,-82.6670,10.0,4.21,73.79,6.37,'11111222,11111222,11111222' 
COMPS,ioos:station:USF.COMPS:ARP:1,2019-09-03T17:54:00,28.4330,-82.6670,10.0,0.88,15.79,2.45,'11111222,11111222,11111222' 
COMPS,ioos:station:USF.COMPS:ARP:1,2019-09-03T19:54:00,28.4330,-82.6670,10.0,1.46,57.32,2.93,'11111222,11111222,11111222' 
COMPS,ioos:station:USF.COMPS:ARP:1,2019-09-03T20:54:00,28.4330,-82.6670,10.0,7.26,66.21,10.29,'11111222,11111222,11111222' 
COMPS,ioos:station:USF.COMPS:ARP:1,2019-09-03T21:54:00,28.4330,-82.6670,10.0,2.6,59.93,4.9,'11111222,11111222,11111222' 
COMPS,ioos:station:USF.COMPS:ARP:1,2019-09-03T23:54:00,28.4330,-82.6670,10.0,0.89,43.36,2.93,'11111222,11111222,11111222' 
COMPS,ioos:station:USF.COMPS:ARP:1,2019-09-04T00:54:00,28.4330,-82.6670,10.0,1.93,329.46,3.82,'11111222,11111222,11111222' 
COMPS,ioos:station:USF.COMPS:ARP:1,2019-09-04T01:54:00,28.4330,-82.6670,10.0,1.08,15.5,4.31,'11111222,11111222,11111222' 
COMPS,ioos:station:USF.COMPS:ARP:1,2019-09-04T02:54:00,28.4330,-82.6670,10.0,1.32,16.13,4.8,'11111222,11111222,11111222' 
COMPS,ioos:station:USF.COMPS:ARP:1,2019-09-04T03:54:00,28.4330,-82.6670,10.0,1.27,12.94,4.31,'11111222,11111222,11111222' 
COMPS,ioos:station:USF.COMPS:ARP:1,2019-09-04T04:54:00,28.4330,-82.6670,10.0,1.3,35.25,4.31,'11111222,11111222,11111222' 
COMPS,ioos:station:USF.COMPS:ARP:1,2019-09-04T05:54:00,28.4330,-82.6670,10.0,1.22,4.39,4.41,'11111222,11111222,11111222' 
COMPS,ioos:station:USF.COMPS:ARP:1,2019-09-04T06:54:00,28.4330,-82.6670,10.0,1.63,356.58,6.37,'11111222,11111222,11111222' 
COMPS,ioos:station:USF.COMPS:ARP:1,2019-09-04T07:54:00,28.4330,-82.6670,10.0,2.21,348.25,4.9,'11111222,11111222,11111222' 
COMPS,ioos:station:USF.COMPS:ARP:1,2019-09-04T08:54:00,28.4330,-82.6670,10.0,2.09,348.03,5.78,'11111222,11111222,11111222' 
COMPS,ioos:station:USF.COMPS:ARP:1,2019-09-04T09:54:00,28.4330,-82.6670,10.0,1.84,345.15,4.99,'11111222,11111222,11111222' 
COMPS,ioos:station:USF.COMPS:ARP:1,2019-09-04T10:54:00,28.4330,-82.6670,10.0,1.54,348.09,3.33,'11111222,11111222,11111222' 
COMPS,ioos:station:USF.COMPS:ARP:1,2019-09-04T11:54:00,28.4330,-82.6670,10.0,1.87,337.37,5.87,'11111222,11111222,11111222' 
COMPS,ioos:station:USF.COMPS:ARP:1,2019-09-04T12:54:00,28.4330,-82.6670,10.0,2.99,330.56,7.54,'11111222,11111222,11111222' 
COMPS,ioos:station:USF.COMPS:ARP:1,2019-09-04T13:54:00,28.4330,-82.6670,10.0,2.99,319.49,5.68,'11111222,11111222,11111222' 
COMPS,ioos:station:USF.COMPS:ARP:1,2019-09-04T14:54:00,28.4330,-82.6670,10.0,5.92,307.67,8.82,'11111222,11111222,11111222' 
COMPS,ioos:station:USF.COMPS:ARP:1,2019-09-04T15:54:00,28.4330,-82.6670,10.0,7.14,307.65,8.82,'11111222,11111222,11111222' 
COMPS,ioos:station:USF.COMPS:ARP:1,2019-09-04T16:54:00,28.4330,-82.6670,10.0,5.52,308.44,10.09,'11111222,11111222,11111222' 
COMPS,ioos:station:USF.COMPS:ARP:1,2019-09-04T17:54:00,28.4330,-82.6670,10.0,7.91,307.25,9.4,'11111222,11111222,11111222' 
COMPS,ioos:station:USF.COMPS:ARP:1,2019-09-04T18:54:00,28.4330,-82.6670,10.0,8.96,304.64,10.97,'11111222,11111222,11111222' 
COMPS,ioos:station:USF.COMPS:ARP:1,2019-09-04T19:54:00,28.4330,-82.6670,10.0,9.9,304.62,11.85,'11111222,11111222,11111222' 
COMPS,ioos:station:USF.COMPS:ARP:1,2019-09-04T20:54:00,28.4330,-82.6670,10.0,9.46,302.96,10.97,'11111222,11111222,11111222' 
COMPS,ioos:station:USF.COMPS:ARP:1,2019-09-04T21:54:00,28.4330,-82.6670,10.0,8.35,304.85,10.09,'11111222,11111222,11111222' 
COMPS,ioos:station:USF.COMPS:ARP:1,2019-09-04T22:54:00,28.4330,-82.6670,10.0,8.7,302.79,10.38,'11111222,11111222,11111222' 
COMPS,ioos:station:USF.COMPS:ARP:1,2019-09-04T23:54:00,28.4330,-82.6670,10.0,7.88,300.64,9.4,'11111222,11111222,11111222' 
COMPS,ioos:station:USF.COMPS:ARP:1,2019-09-05T00:54:00,28.4330,-82.6670,10.0,6.32,292.22,8.42,'11111222,11111222,11111222' 
COMPS,ioos:station:USF.COMPS:ARP:1,2019-09-05T01:54:00,28.4330,-82.6670,10.0,6.89,295.84,8.72,'11111222,11111222,11111222' 
COMPS,ioos:station:USF.COMPS:ARP:1,2019-09-05T02:54:00,28.4330,-82.6670,10.0,5.69,292.09,6.76,'11111222,11111222,11111222' 
COMPS,ioos:station:USF.COMPS:ARP:1,2019-09-05T03:54:00,28.4330,-82.6670,10.0,6.02,285.36,8.23,'11111222,11111222,11111222' 
COMPS,ioos:station:USF.COMPS:ARP:1,2019-09-05T04:54:00,28.4330,-82.6670,10.0,5.59,281.12,7.54,'11111222,11111222,11111222' 
COMPS,ioos:station:USF.COMPS:ARP:1,2019-09-05T05:54:00,28.4330,-82.6670,10.0,5.46,276.02,7.74,'11111222,11111222,11111222' 
COMPS,ioos:station:USF.COMPS:ARP:1,2019-09-05T06:54:00,28.4330,-82.6670,10.0,6.38,287.45,7.83,'11111222,11111222,11111222' 
COMPS,ioos:station:USF.COMPS:ARP:1,2019-09-05T07:54:00,28.4330,-82.6670,10.0,6.15,281.01,7.83,'11111222,11111222,11111222' 
COMPS,ioos:station:USF.COMPS:ARP:1,2019-09-05T08:54:00,28.4330,-82.6670,10.0,5.87,285.38,7.64,'11111222,11111222,11111222' 
COMPS,ioos:station:USF.COMPS:ARP:1,2019-09-05T09:54:00,28.4330,-82.6670,10.0,5.35,275.27,6.95,'11111222,11111222,11111222' 
COMPS,ioos:station:USF.COMPS:ARP:1,2019-09-05T10:54:00,28.4330,-82.6670,10.0,5.84,277.49,7.93,'11111222,11111222,11111222' 
COMPS,ioos:station:USF.COMPS:ARP:1,2019-09-05T11:54:00,28.4330,-82.6670,10.0,5.8,284.13,7.74,'11111222,11111222,11111222' 
COMPS,ioos:station:USF.COMPS:ARP:1,2019-09-05T12:54:00,28.4330,-82.6670,10.0,5.72,287.39,7.35,'11111222,11111222,11111222' 
COMPS,ioos:station:USF.COMPS:ARP:1,2019-09-05T13:54:00,28.4330,-82.6670,10.0,5.81,279.93,7.93,'11111222,11111222,11111222' 
COMPS,ioos:station:USF.COMPS:ARP:1,2019-09-05T14:54:00,28.4330,-82.6670,10.0,5.74,282.41,8.52,'11111222,11111222,11111222' 
COMPS,ioos:station:USF.COMPS:ARP:1,2019-09-05T15:54:00,28.4330,-82.6670,10.0,5.63,279.41,8.03,'11111222,11111222,11111222' 
COMPS,ioos:station:USF.COMPS:ARP:1,2019-09-05T16:54:00,28.4330,-82.6670,10.0,6.12,281.14,8.23,'11111222,11111222,11111222' 
COMPS,ioos:station:USF.COMPS:ARP:1,2019-09-05T17:54:00,28.4330,-82.6670,10.0,6.25,283.38,7.74,'11111222,11111222,11111222' 
COMPS,ioos:station:USF.COMPS:ARP:1,2019-09-05T18:54:00,28.4330,-82.6670,10.0,6.44,282.36,8.62,'11111222,11111222,11111222' 
COMPS,ioos:station:USF.COMPS:ARP:1,2019-09-05T19:54:00,28.4330,-82.6670,10.0,6.85,277.74,8.91,'11111222,11111222,11111222' 
COMPS,ioos:station:USF.COMPS:ARP:1,2019-09-05T20:54:00,28.4330,-82.6670,10.0,6.16,277.22,8.52,'11111222,11111222,11111222' 
COMPS,ioos:station:USF.COMPS:ARP:1,2019-09-05T21:54:00,28.4330,-82.6670,10.0,6.83,269.92,9.3,'11111222,11111222,11111222' 
COMPS,ioos:station:USF.COMPS:ARP:1,2019-09-05T22:54:00,28.4330,-82.6670,10.0,6.32,278.05,8.91,'11111222,11111222,11111222' 
COMPS,ioos:station:USF.COMPS:ARP:1,2019-09-05T23:54:00,28.4330,-82.6670,10.0,5.67,275.85,7.54,'11111222,11111222,11111222' 
COMPS,ioos:station:USF.COMPS:ARP:1,2019-09-06T00:54:00,28.4330,-82.6670,10.0,6.02,278.07,8.13,'11111222,11111222,11111222' 
COMPS,ioos:station:USF.COMPS:ARP:1,2019-09-06T01:54:00,28.4330,-82.6670,10.0,5.96,279.99,8.23,'11111222,11111222,11111222' 
COMPS,ioos:station:USF.COMPS:ARP:1,2019-09-06T02:54:00,28.4330,-82.6670,10.0,5.43,280.62,7.74,'11111222,11111222,11111222' 
COMPS,ioos:station:USF.COMPS:ARP:1,2019-09-06T03:54:00,28.4330,-82.6670,10.0,5.85,280.44,7.25,'11111222,11111222,11111222' 
COMPS,ioos:station:USF.COMPS:ARP:1,2019-09-06T05:54:00,28.4330,-82.6670,10.0,4.52,269.29,6.76,'11111222,11111222,11111222' 
COMPS,ioos:station:USF.COMPS:ARP:1,2019-09-06T06:54:00,28.4330,-82.6670,10.0,4.44,273.21,6.56,'11111222,11111222,11111222' 
COMPS,ioos:station:USF.COMPS:ARP:1,2019-09-06T07:54:00,28.4330,-82.6670,10.0,4.83,272.3,6.37,'11111222,11111222,11111222' 
COMPS,ioos:station:USF.COMPS:ARP:1,2019-09-06T08:54:00,28.4330,-82.6670,10.0,5.56,284.54,7.25,'11111222,11111222,11111222' 
COMPS,ioos:station:USF.COMPS:ARP:1,2019-09-06T09:54:00,28.4330,-82.6670,10.0,5.63,284.33,7.25,'11111222,11111222,11111222' 
COMPS,ioos:station:USF.COMPS:ARP:1,2019-09-06T10:54:00,28.4330,-82.6670,10.0,5.8,291.91,7.15,'11111222,11111222,11111222' 
COMPS,ioos:station:USF.COMPS:ARP:1,2019-09-06T11:54:00,28.4330,-82.6670,10.0,5.12,294.51,6.56,'11111222,11111222,11111222' 
COMPS,ioos:station:USF.COMPS:ARP:1,2019-09-06T12:54:00,28.4330,-82.6670,10.0,5.18,293.52,6.85,'11111222,11111222,11111222' 
COMPS,ioos:station:USF.COMPS:ARP:1,2019-09-06T13:54:00,28.4330,-82.6670,10.0,4.63,298.13,5.78,'11111222,11111222,11111222' 
COMPS,ioos:station:USF.COMPS:ARP:1,2019-09-06T14:54:00,28.4330,-82.6670,10.0,4.49,294.45,5.48,'11111222,11111222,11111222' 
COMPS,ioos:station:USF.COMPS:ARP:1,2019-09-06T15:54:00,28.4330,-82.6670,10.0,4.87,290.03,5.97,'11111222,11111222,11111222' 
COMPS,ioos:station:USF.COMPS:ARP:1,2019-09-06T16:54:00,28.4330,-82.6670,10.0,5.27,294.89,6.56,'11111222,11111222,11111222' 
COMPS,ioos:station:USF.COMPS:ARP:1,2019-09-06T17:54:00,28.4330,-82.6670,10.0,5.24,293.13,6.66,'11111222,11111222,11111222' 
COMPS,ioos:station:USF.COMPS:ARP:1,2019-09-06T18:54:00,28.4330,-82.6670,10.0,5.52,288.63,7.15,'11111222,11111222,11111222' 
COMPS,ioos:station:USF.COMPS:ARP:1,2019-09-06T19:54:00,28.4330,-82.6670,10.0,5.3,284.97,7.35,'11111222,11111222,11111222' 
COMPS,ioos:station:USF.COMPS:ARP:1,2019-09-06T20:54:00,28.4330,-82.6670,10.0,5.02,290.95,6.66,'11111222,11111222,11111222' 
COMPS,ioos:station:USF.COMPS:ARP:1,2019-09-06T21:54:00,28.4330,-82.6670,10.0,5.57,298.13,6.46,'11111222,11111222,11111222' 
COMPS,ioos:station:USF.COMPS:ARP:1,2019-09-06T22:54:00,28.4330,-82.6670,10.0,4.39,304.41,5.78,'11111222,11111222,11111222' 
COMPS,ioos:station:USF.COMPS:ARP:1,2019-09-06T23:54:00,28.4330,-82.6670,10.0,5.16,308.69,6.85,'11111222,11111222,11111222' 
COMPS,ioos:station:USF.COMPS:ARP:1,2019-09-07T00:54:00,28.4330,-82.6670,10.0,6.38,295.8,8.13,'11111222,11111222,11111222' 
COMPS,ioos:station:USF.COMPS:ARP:1,2019-09-07T01:54:00,28.4330,-82.6670,10.0,6.28,297.24,7.93,'11111222,11111222,11111222' 
COMPS,ioos:station:USF.COMPS:ARP:1,2019-09-07T02:54:00,28.4330,-82.6670,10.0,3.13,302.78,5.39,'11111222,11111222,11111222' 
COMPS,ioos:station:USF.COMPS:ARP:1,2019-09-07T03:54:00,28.4330,-82.6670,10.0,0.81,297.12,2.35,'11111222,11111222,11111222' 
COMPS,ioos:station:USF.COMPS:ARP:1,2019-09-07T04:54:00,28.4330,-82.6670,10.0,0.35,65.18,0.68,'11111222,11111222,11111222' 
COMPS,ioos:station:USF.COMPS:ARP:1,2019-09-07T05:54:00,28.4330,-82.6670,10.0,0.38,83.23,0.68,'11111222,11111222,11111222' 
COMPS,ioos:station:USF.COMPS:ARP:1,2019-09-07T06:54:00,28.4330,-82.6670,10.0,0.46,19.3,2.15,'11111222,11111222,11111222' 
COMPS,ioos:station:USF.COMPS:ARP:1,2019-09-07T07:54:00,28.4330,-82.6670,10.0,0.36,75.22,0.58,'11111222,11111222,11111222' 
COMPS,ioos:station:USF.COMPS:ARP:1,2019-09-07T08:54:00,28.4330,-82.6670,10.0,0.83,103.2,1.46,'11111222,11111222,11111222' 
COMPS,ioos:station:USF.COMPS:ARP:1,2019-09-07T09:54:00,28.4330,-82.6670,10.0,0.77,119.29,1.27,'11111222,11111222,11111222' 
COMPS,ioos:station:USF.COMPS:ARP:1,2019-09-07T10:54:00,28.4330,-82.6670,10.0,0.89,118.4,1.46,'11111222,11111222,11111222' 
COMPS,ioos:station:USF.COMPS:ARP:1,2019-09-07T11:54:00,28.4330,-82.6670,10.0,0.3,146.23,0.78,'11111222,11111222,11111222' 
COMPS,ioos:station:USF.COMPS:ARP:1,2019-09-07T12:54:00,28.4330,-82.6670,10.0,0.86,186.38,1.66,'11111222,11111222,11111222' 
COMPS,ioos:station:USF.COMPS:ARP:1,2019-09-07T13:54:00,28.4330,-82.6670,10.0,0.85,207.36,1.76,'11111222,11111222,11111222' 
COMPS,ioos:station:USF.COMPS:ARP:1,2019-09-07T14:54:00,28.4330,-82.6670,10.0,2.67,269.54,3.82,'11111222,11111222,11111222' 
COMPS,ioos:station:USF.COMPS:ARP:1,2019-09-07T15:54:00,28.4330,-82.6670,10.0,3.7,290.18,4.31,'11111222,11111222,11111222' 
COMPS,ioos:station:USF.COMPS:ARP:1,2019-09-07T16:54:00,28.4330,-82.6670,10.0,3.16,292.16,3.82,'11111222,11111222,11111222' 
COMPS,ioos:station:USF.COMPS:ARP:1,2019-09-07T17:54:00,28.4330,-82.6670,10.0,3.7,298.16,4.6,'11111222,11111222,11111222' 
COMPS,ioos:station:USF.COMPS:ARP:1,2019-09-07T18:54:00,28.4330,-82.6670,10.0,3.95,302.83,5.29,'11111222,11111222,11111222' 
COMPS,ioos:station:USF.COMPS:ARP:1,2019-09-07T19:54:00,28.4330,-82.6670,10.0,3.63,294.89,5.09,'11111222,11111222,11111222' 
COMPS,ioos:station:USF.COMPS:ARP:1,2019-09-07T20:54:00,28.4330,-82.6670,10.0,3.91,304.17,4.9,'11111222,11111222,11111222' 
COMPS,ioos:station:USF.COMPS:ARP:1,2019-09-07T21:54:00,28.4330,-82.6670,10.0,4.36,305.76,5.58,'11111222,11111222,11111222' 
COMPS,ioos:station:USF.COMPS:ARP:1,2019-09-07T22:54:00,28.4330,-82.6670,10.0,2.74,315.21,4.31,'11111222,11111222,11111222' 
COMPS,ioos:station:USF.COMPS:ARP:1,2019-09-07T23:54:00,28.4330,-82.6670,10.0,3.69,307.9,4.99,'11111222,11111222,11111222' 
COMPS,ioos:station:USF.COMPS:ARP:1,2019-09-08T00:54:00,28.4330,-82.6670,10.0,2.16,306.67,3.42,'11111222,11111222,11111222' 
COMPS,ioos:station:USF.COMPS:ARP:1,2019-09-08T01:54:00,28.4330,-82.6670,10.0,1.94,314.07,3.62,'11111222,11111222,11111222' 
COMPS,ioos:station:USF.COMPS:ARP:1,2019-09-08T02:54:00,28.4330,-82.6670,10.0,1.38,310.56,2.05,'11111222,11111222,11111222' 
COMPS,ioos:station:USF.COMPS:ARP:1,2019-09-08T03:54:00,28.4330,-82.6670,10.0,1.88,309.7,3.42,'11111222,11111222,11111222' 
COMPS,ioos:station:USF.COMPS:ARP:1,2019-09-08T04:54:00,28.4330,-82.6670,10.0,1.41,330.49,2.64,'11111222,11111222,11111222' 
COMPS,ioos:station:USF.COMPS:ARP:1,2019-09-08T05:54:00,28.4330,-82.6670,10.0,0.37,13.29,0.97,'11111222,11111222,11111222' 
COMPS,ioos:station:USF.COMPS:ARP:1,2019-09-08T06:54:00,28.4330,-82.6670,10.0,0.66,86.63,0.97,'11111222,11111222,11111222' 
COMPS,ioos:station:USF.COMPS:ARP:1,2019-09-08T07:54:00,28.4330,-82.6670,10.0,1.22,102.34,1.56,'11111222,11111222,11111222' 
COMPS,ioos:station:USF.COMPS:ARP:1,2019-09-08T08:54:00,28.4330,-82.6670,10.0,1.03,103.59,1.46,'11111222,11111222,11111222' 
COMPS,ioos:station:USF.COMPS:ARP:1,2019-09-08T09:54:00,28.4330,-82.6670,10.0,0.97,93.94,1.27,'11111222,11111222,11111222' 
COMPS,ioos:station:USF.COMPS:ARP:1,2019-09-08T10:54:00,28.4330,-82.6670,10.0,1.44,109.27,1.76,'11111222,11111222,11111222' 
COMPS,ioos:station:USF.COMPS:ARP:1,2019-09-08T11:54:00,28.4330,-82.6670,10.0,0.61,128.49,2.05,'11111222,11111222,11111222' 
COMPS,ioos:station:USF.COMPS:ARP:1,2019-09-08T12:54:00,28.4330,-82.6670,10.0,0.51,130.63,1.56,'11111222,11111222,11111222' 
COMPS,ioos:station:USF.COMPS:ARP:1,2019-09-08T13:54:00,28.4330,-82.6670,10.0,0.8,104.44,1.66,'11111222,11111222,11111222' 
COMPS,ioos:station:USF.COMPS:ARP:1,2019-09-08T14:54:00,28.4330,-82.6670,10.0,2.04,309.43,2.54,'11111222,11111222,11111222' 
COMPS,ioos:station:USF.COMPS:ARP:1,2019-09-08T15:54:00,28.4330,-82.6670,10.0,3.29,304.53,3.82,'11111222,11111222,11111222' 
COMPS,ioos:station:USF.COMPS:ARP:1,2019-09-08T16:54:00,28.4330,-82.6670,10.0,3.6,304.09,4.31,'11111222,11111222,11111222' 
COMPS,ioos:station:USF.COMPS:ARP:1,2019-09-08T17:54:00,28.4330,-82.6670,10.0,4.11,297.69,5.09,'11111222,11111222,11111222' 
COMPS,ioos:station:USF.COMPS:ARP:1,2019-09-08T18:54:00,28.4330,-82.6670,10.0,4.36,305.82,5.39,'11111222,11111222,11111222' 
COMPS,ioos:station:USF.COMPS:ARP:1,2019-09-08T19:54:00,28.4330,-82.6670,10.0,4.49,303.94,5.29,'11111222,11111222,11111222' 
COMPS,ioos:station:USF.COMPS:ARP:1,2019-09-08T20:54:00,28.4330,-82.6670,10.0,4.08,305.75,5.39,'11111222,11111222,11111222' 
COMPS,ioos:station:USF.COMPS:ARP:1,2019-09-08T21:54:00,28.4330,-82.6670,10.0,3.84,297.6,4.9,'11111222,11111222,11111222' 
COMPS,ioos:station:USF.COMPS:ARP:1,2019-09-08T22:54:00,28.4330,-82.6670,10.0,2.81,308.91,3.91,'11111222,11111222,11111222' 
COMPS,ioos:station:USF.COMPS:ARP:1,2019-09-08T23:54:00,28.4330,-82.6670,10.0,2.68,294.16,3.42,'11111222,11111222,11111222' 
COMPS,ioos:station:USF.COMPS:ARP:1,2019-09-09T00:54:00,28.4330,-82.6670,10.0,0.68,307.28,1.27,'11111222,11111222,11111222' 
COMPS,ioos:station:USF.COMPS:ARP:1,2019-09-09T01:54:00,28.4330,-82.6670,10.0,0.54,68.78,0.78,'11111222,11111222,11111222' 
COMPS,ioos:station:USF.COMPS:ARP:1,2019-09-09T02:54:00,28.4330,-82.6670,10.0,0.13,113.76,0.49,'11111222,11111222,11111222' 
COMPS,ioos:station:USF.COMPS:ARP:1,2019-09-09T03:54:00,28.4330,-82.6670,10.0,0.74,68.37,0.97,'11111222,11111222,11111222' 
COMPS,ioos:station:USF.COMPS:ARP:1,2019-09-09T04:54:00,28.4330,-82.6670,10.0,0.47,83.25,0.78,'11111222,11111222,11111222' 